Wind_Speed
18 17 15 14 13 11 10 9 8 7 7 7 7 8 9 10 11 12 12 13 13 13 13 14 14 15 15 14 13 13 13 13 14 15 15 16 17 17 16 16 16 15 15
18 18 17 15 13 11 10 8 7 7 7 7 8 9 10 11 12 12 13 14 14 15 15 16 16 16 15 15 14 14 14 15 15 16 16 17 17 17 17 17 16 16 15
18 18 16 14 13 11 10 9 8 8 7 8 8 9 10 11 12 13 14 14 15 15 16 16 16 16 16 15 15 15 15 16 16 17 18 18 18 18 18 17 17 16 16
17 16 15 14 12 11 10 9 9 9 9 9 10 11 11 12 13 14 15 15 15 15 16 16 16 16 16 16 16 16 17 17 18 18 18 19 19 19 18 18 18 17 17
17 16 15 13 12 11 11 10 10 10 11 11 11 12 12 13 14 15 15 15 15 15 16 16 16 16 16 16 16 16 17 19 19 19 20 20 20 20 20 19 19 19 18
18 17 16 14 14 13 12 12 12 12 12 13 13 14 14 15 16 16 16 16 16 16 16 16 16 16 16 16 16 17 18 19 19 20 21 21 21 21 20 20 20 20 20
19 18 17 16 15 15 14 14 14 14 14 14 15 16 16 17 17 17 17 17 17 16 16 16 16 16 16 17 17 18 18 19 19 20 20 20 20 20 20 20 20 20 20
21 20 19 18 18 17 17 16 16 16 16 16 16 17 18 18 19 19 18 18 17 17 17 17 17 17 17 18 18 18 19 19 19 19 20 20 20 19 19 19 19 19 19
23 22 21 20 20 20 19 19 18 18 18 18 18 18 18 19 19 19 19 19 18 18 18 18 18 18 19 19 19 19 19 20 20 19 19 20 19 19 19 19 19 19 19
25 24 23 23 23 22 22 21 20 20 20 19 19 19 19 19 20 20 19 19 19 19 19 19 19 19 20 20 20 21 21 21 20 20 20 20 20 20 20 20 20 20 20
28 27 26 26 25 25 24 23 22 21 21 21 20 20 19 19 19 20 20 20 20 21 21 21 21 21 21 21 21 22 22 22 22 21 21 21 21 21 21 21 21 21 21
30 29 29 28 28 27 26 25 23 23 22 22 22 21 20 19 20 20 21 21 21 22 22 23 23 23 23 23 23 23 23 24 24 24 23 23 23 23 22 22 22 22 22
32 31 31 30 29 29 28 26 25 24 24 24 23 23 22 21 21 21 22 22 23 23 24 24 25 25 25 26 26 25 25 25 25 26 26 25 25 25 25 24 24 24 23
34 34 33 32 31 30 29 28 26 25 25 25 24 24 23 22 22 23 24 23 24 25 25 26 26 26 27 27 28 28 27 27 27 28 28 28 27 27 27 27 26 26 25
36 35 34 34 33 31 30 29 28 27 26 26 25 25 25 24 24 24 25 25 26 27 27 28 28 28 28 29 30 30 30 29 29 29 29 29 29 29 29 29 28 28 27
38 37 36 35 34 32 31 31 30 29 28 27 26 27 27 26 26 26 26 27 28 29 29 30 30 30 30 31 31 32 32 32 31 31 31 31 31 31 30 30 30 30 29
39 38 37 36 35 33 33 32 31 30 29 28 28 28 28 28 28 28 28 29 30 31 31 32 32 33 33 34 34 35 35 35 34 34 34 34 33 33 32 32 32 32 32
40 39 38 37 36 35 34 33 32 31 30 29 30 29 30 30 31 31 30 31 32 33 33 34 35 36 37 37 38 38 38 38 38 37 37 36 36 36 35 35 34 34 34
40 39 38 37 36 36 35 34 33 32 31 31 31 31 32 32 33 33 33 34 35 35 36 37 38 39 39 40 41 41 42 42 42 41 40 39 39 39 38 38 37 36 36
41 40 39 38 37 37 36 35 34 33 33 33 33 33 34 34 35 35 36 36 38 38 39 40 41 42 42 43 44 44 45 45 45 44 44 44 43 42 42 41 40 39 39
41 41 40 39 39 38 37 36 35 35 35 35 35 36 36 37 37 38 38 39 40 41 42 43 44 44 45 46 47 47 48 48 48 48 48 48 47 46 45 44 43 42 42
42 41 41 41 40 39 38 38 37 37 37 37 37 37 38 39 40 41 41 42 43 44 44 45 46 47 47 48 49 50 50 50 49 51 51 51 50 49 48 47 47 46 45
42 42 42 42 41 41 40 39 39 38 38 38 38 39 40 41 42 43 44 45 46 46 47 47 48 49 49 50 51 52 53 52 52 52 52 53 53 52 51 50 49 49 49
42 43 43 43 42 42 41 40 40 39 39 40 40 40 41 42 43 44 46 47 47 48 48 49 49 50 51 51 52 52 54 54 55 55 55 55 55 54 54 53 52 52 51
42 42 43 42 42 42 41 40 39 39 40 40 41 42 43 44 45 45 46 47 48 48 49 49 50 51 51 51 52 53 54 55 56 57 58 57 57 57 56 57 56 55 54
42 42 42 42 41 41 40 40 40 40 41 42 43 44 45 45 46 46 47 48 48 48 48 48 49 50 50 51 53 54 55 57 58 60 61 60 60 59 59 59 58 57 56
Wind_Direction
231 235 240 243 246 250 254 258 261 266 273 280 288 294 300 306 310 313 315 317 316 315 314 313 314 316 316 315 313 309 305 302 301 302 302 303 303 303 303 303 302 302 302
234 238 240 241 244 247 252 256 259 264 271 279 288 295 301 305 308 310 312 312 311 310 309 310 311 312 313 312 310 306 303 300 300 300 300 299 299 299 299 299 299 298 299
234 235 237 239 241 246 251 256 262 268 274 281 288 295 300 304 306 307 307 306 306 306 306 307 308 309 309 309 307 304 302 299 299 299 298 296 295 295 295 295 295 294 295
234 234 236 237 240 245 252 259 267 274 279 283 288 293 298 301 303 305 305 303 302 302 303 305 306 306 306 305 304 303 300 298 298 297 295 294 293 292 291 291 290 291 291
235 236 237 239 242 247 252 260 268 275 279 282 287 291 295 299 302 302 302 301 300 300 301 303 304 304 304 303 302 301 300 298 298 297 296 295 293 291 289 288 288 287 287
236 237 239 242 246 249 254 259 265 271 276 280 285 290 294 298 300 301 301 300 300 299 299 301 303 303 302 300 299 299 297 296 296 296 296 296 294 292 290 289 288 287 286
237 239 242 245 249 252 256 259 261 264 269 275 282 287 292 296 299 300 301 300 299 299 299 299 300 299 299 297 295 295 294 293 293 293 294 294 294 293 292 291 290 288 288
238 241 244 248 252 256 259 261 261 262 265 270 277 283 289 293 296 298 299 299 299 299 298 298 298 296 295 293 292 292 292 292 292 292 293 293 293 293 292 291 290 289 288
239 242 246 251 255 258 261 263 264 264 266 270 275 281 287 291 294 295 297 298 298 298 297 297 296 295 293 292 292 291 291 292 292 291 292 293 293 293 292 292 291 291 290
239 244 248 252 256 259 262 264 265 267 269 273 277 281 286 289 291 292 294 295 296 297 296 296 295 294 293 292 291 290 290 290 290 290 291 291 291 291 290 290 290 290 291
240 244 249 254 257 260 261 263 266 269 273 277 281 284 286 287 288 289 291 292 294 295 295 294 293 292 291 290 289 289 288 288 288 288 288 288 288 287 287 287 287 288 289
240 244 249 253 257 259 261 263 266 270 276 281 284 286 287 287 286 287 288 290 291 292 293 293 292 291 291 289 288 287 287 287 287 287 287 286 286 285 284 284 285 285 287
240 244 248 252 255 257 260 262 266 271 277 281 284 287 287 287 286 286 287 288 289 289 290 290 290 290 290 289 288 287 287 287 287 286 286 285 285 285 283 283 283 283 284
239 242 246 250 253 256 258 261 266 271 275 279 282 284 285 286 286 287 287 288 288 288 288 288 288 288 288 288 288 287 287 287 287 287 287 286 285 284 283 282 281 281 282
237 241 244 248 252 255 258 262 266 269 272 276 278 280 282 284 285 285 287 288 288 288 288 288 288 288 288 287 287 287 288 288 287 287 287 287 285 284 282 281 280 279 279
236 239 242 245 249 252 256 261 264 267 270 272 275 278 280 282 282 283 285 286 287 288 288 288 288 288 288 286 286 285 286 286 286 286 286 286 285 284 282 281 280 278 277
236 239 241 244 246 249 253 257 261 264 268 271 273 275 277 279 281 282 283 284 285 287 288 289 289 289 288 287 286 285 284 285 284 284 284 284 283 282 281 280 278 277 275
237 240 242 245 247 250 252 256 259 262 265 268 271 274 275 277 279 281 282 283 284 286 287 288 288 288 288 287 286 285 284 284 283 282 281 281 280 280 279 278 276 275 274
237 239 243 246 249 251 253 256 259 262 264 266 269 272 274 276 279 280 282 283 284 285 286 286 286 286 286 286 285 284 284 283 282 280 279 278 277 277 276 275 274 273 272
237 239 242 245 248 252 255 258 261 263 265 267 269 271 273 276 278 279 281 283 284 285 286 286 286 286 285 285 284 284 283 283 282 281 279 278 276 275 274 273 272 271 271
238 240 242 245 247 251 254 258 261 264 266 269 272 274 276 277 278 280 282 283 284 285 285 286 286 286 285 285 284 283 283 283 282 281 279 277 276 274 273 272 271 270 269
239 242 244 246 248 251 254 258 260 263 266 268 271 273 276 278 279 281 282 283 284 285 285 286 286 286 286 286 285 284 284 283 283 281 280 279 277 275 273 272 270 269 269
239 243 246 248 250 253 255 258 261 263 266 268 270 272 274 276 278 280 282 283 284 285 286 286 287 287 287 286 286 286 285 285 283 282 282 280 279 277 274 272 270 269 268
239 243 246 249 252 254 257 259 261 263 266 268 271 273 275 276 277 279 281 282 283 285 286 286 287 287 287 287 287 287 286 286 285 283 282 281 279 277 275 273 271 269 268
240 243 246 249 252 255 258 260 262 264 267 270 272 274 275 276 277 278 280 281 283 285 286 286 287 287 287 287 287 287 287 287 286 285 284 281 279 276 274 272 270 269 267
241 243 246 249 252 255 258 261 264 266 269 271 273 274 275 276 278 279 281 282 284 285 286 286 287 287 288 288 288 288 288 288 287 286 284 281 278 276 273 271 269 267 266
Height
5894 5896 5897 5898 5899 5900 5900 5900 5901 5901 5901 5901 5901 5902 5902 5902 5901 5901 5901 5900 5900 5899 5899 5898 5898 5897 5896 5895 5895 5894 5893 5892 5891 5890 5889 5887 5886 5885 5883 5882 5881 5880 5878
5893 5894 5895 5897 5898 5898 5899 5899 5899 5900 5900 5900 5900 5900 5901 5900 5900 5900 5900 5899 5899 5898 5897 5897 5896 5895 5894 5894 5893 5892 5891 5889 5888 5887 5886 5885 5883 5882 5881 5879 5878 5877 5876
5891 5892 5893 5895 5896 5897 5897 5898 5898 5898 5899 5899 5899 5899 5899 5899 5899 5899 5898 5898 5897 5897 5896 5895 5894 5893 5892 5892 5891 5890 5888 5887 5886 5885 5883 5882 5881 5880 5878 5877 5875 5874 5873
5888 5890 5891 5893 5894 5895 5895 5896 5897 5897 5897 5898 5898 5898 5898 5898 5898 5897 5897 5896 5896 5895 5894 5893 5892 5891 5890 5889 5888 5887 5886 5884 5883 5882 5881 5879 5878 5877 5875 5874 5873 5871 5870
5886 5887 5889 5890 5892 5893 5894 5895 5895 5896 5896 5897 5897 5897 5897 5896 5896 5895 5895 5894 5894 5893 5892 5891 5890 5889 5888 5887 5886 5885 5883 5882 5881 5879 5878 5876 5875 5874 5872 5871 5870 5868 5867
5883 5885 5886 5888 5890 5891 5892 5893 5894 5894 5895 5895 5895 5895 5895 5894 5894 5893 5892 5892 5891 5890 5889 5888 5887 5886 5885 5884 5883 5882 5880 5879 5878 5876 5875 5873 5872 5870 5869 5868 5867 5865 5864
5880 5882 5884 5886 5887 5889 5890 5891 5892 5893 5893 5893 5893 5893 5892 5892 5891 5891 5890 5889 5888 5887 5886 5885 5885 5884 5883 5881 5880 5879 5877 5876 5875 5873 5872 5870 5869 5867 5866 5864 5863 5862 5860
5877 5879 5881 5883 5885 5886 5888 5889 5890 5891 5891 5891 5891 5890 5890 5889 5889 5888 5887 5886 5885 5884 5883 5882 5881 5880 5879 5878 5877 5876 5874 5873 5871 5870 5868 5867 5866 5864 5863 5861 5860 5859 5857
5874 5877 5879 5881 5882 5884 5885 5886 5887 5888 5888 5888 5888 5888 5887 5887 5886 5885 5884 5883 5882 5881 5880 5879 5878 5877 5876 5875 5873 5872 5870 5869 5868 5866 5865 5863 5862 5861 5859 5858 5857 5855 5854
5871 5874 5876 5878 5880 5881 5882 5883 5884 5885 5885 5885 5885 5885 5884 5884 5882 5881 5880 5880 5879 5878 5877 5875 5874 5873 5872 5871 5870 5868 5867 5865 5864 5862 5861 5860 5858 5857 5856 5855 5853 5852 5850
5868 5870 5872 5874 5876 5878 5879 5880 5881 5881 5882 5882 5882 5882 5881 5880 5879 5878 5877 5876 5875 5874 5873 5872 5871 5869 5868 5867 5866 5864 5863 5861 5860 5859 5857 5856 5855 5853 5852 5851 5849 5848 5847
5864 5867 5869 5870 5872 5874 5875 5876 5877 5878 5878 5878 5878 5877 5877 5876 5875 5874 5873 5872 5871 5870 5869 5868 5866 5865 5864 5863 5862 5860 5859 5857 5856 5854 5853 5852 5850 5849 5848 5846 5845 5844 5842
5859 5862 5864 5866 5868 5870 5871 5872 5874 5874 5874 5874 5873 5873 5873 5872 5871 5870 5869 5868 5867 5866 5865 5863 5862 5861 5860 5858 5857 5856 5854 5853 5851 5850 5848 5847 5845 5844 5843 5842 5840 5839 5838
5854 5857 5859 5862 5864 5865 5867 5868 5869 5870 5870 5869 5869 5869 5868 5868 5867 5866 5865 5864 5863 5862 5860 5859 5858 5856 5855 5853 5852 5850 5849 5848 5846 5845 5843 5842 5840 5839 5838 5836 5835 5834 5833
5849 5852 5855 5857 5859 5860 5862 5863 5864 5865 5865 5865 5865 5864 5864 5863 5863 5861 5860 5859 5858 5857 5856 5854 5853 5851 5850 5848 5847 5845 5844 5842 5841 5839 5838 5836 5835 5833 5832 5831 5829 5828 5827
5843 5846 5849 5852 5854 5856 5857 5858 5859 5860 5860 5860 5860 5859 5859 5858 5858 5857 5856 5855 5853 5852 5850 5849 5847 5846 5845 5843 5841 5839 5838 5836 5835 5833 5832 5830 5829 5827 5826 5824 5823 5822 5821
5836 5840 5843 5846 5848 5851 5852 5853 5854 5854 5854 5854 5854 5854 5853 5853 5852 5852 5851 5849 5848 5846 5845 5843 5841 5840 5838 5837 5835 5833 5831 5830 5828 5826 5825 5823 5822 5820 5819 5817 5816 5815 5814
5830 5833 5836 5839 5842 5844 5846 5847 5848 5848 5849 5849 5848 5848 5848 5847 5846 5846 5845 5844 5842 5840 5839 5837 5835 5833 5831 5829 5828 5825 5824 5822 5821 5819 5817 5816 5814 5812 5811 5810 5808 5807 5806
5824 5827 5829 5832 5834 5836 5838 5839 5841 5842 5843 5843 5842 5842 5841 5841 5840 5839 5838 5837 5835 5833 5832 5830 5828 5826 5824 5822 5819 5817 5816 5814 5812 5811 5809 5807 5805 5804 5802 5801 5800 5799 5798
5817 5820 5823 5825 5827 5828 5830 5832 5833 5834 5835 5835 5835 5835 5835 5834 5833 5832 5831 5829 5827 5825 5824 5822 5820 5818 5816 5813 5810 5808 5807 5805 5803 5802 5800 5798 5796 5794 5792 5791 5790 5789 5788
5810 5813 5815 5818 5820 5822 5823 5825 5826 5827 5827 5827 5827 5827 5826 5826 5824 5823 5822 5821 5819 5817 5815 5812 5810 5808 5806 5803 5800 5798 5797 5795 5793 5791 5789 5787 5785 5783 5782 5781 5780 5779 5778
5802 5805 5807 5810 5812 5815 5816 5818 5819 5820 5820 5820 5820 5819 5818 5817 5815 5814 5813 5811 5809 5807 5805 5803 5800 5797 5795 5792 5789 5786 5785 5785 5782 5779 5777 5775 5774 5772 5771 5769 5768 5767 5767
5795 5797 5800 5802 5804 5807 5809 5810 5811 5812 5812 5812 5812 5811 5810 5809 5807 5805 5803 5801 5799 5797 5795 5792 5789 5786 5784 5781 5777 5774 5772 5772 5770 5767 5765 5763 5761 5760 5758 5757 5756 5755 5755
5787 5789 5792 5794 5796 5799 5800 5802 5803 5803 5804 5803 5803 5802 5801 5800 5798 5796 5794 5791 5789 5786 5784 5781 5778 5775 5772 5769 5766 5762 5759 5757 5755 5754 5752 5750 5747 5746 5745 5744 5743 5742 5742
5779 5782 5784 5787 5788 5790 5792 5793 5794 5794 5795 5794 5793 5793 5791 5790 5788 5786 5783 5781 5778 5776 5773 5770 5767 5763 5760 5757 5754 5750 5746 5743 5740 5737 5736 5736 5733 5732 5730 5729 5728 5728 5728
5770 5773 5776 5778 5780 5781 5783 5784 5785 5785 5785 5785 5784 5782 5781 5779 5777 5775 5773 5770 5768 5765 5762 5759 5755 5752 5748 5745 5741 5737 5733 5729 5726 5722 5719 5718 5716 5715 5713 5713 5713 5713 5713